| time (UTC) | temp F | wind direction | speed MPH | gust MPH | rain 1hr in | rain 24hr in | rain mn in | humidity % | barometer mb |
| 20260506062505 | 47 | 33 | 1.0 | 4.0 | 0.00 | 0.03 | 0.00 | 48 | 1010.6 |
| 20260506062006 | 48 | 59 | 1.0 | 4.0 | 0.00 | 0.03 | 0.00 | 47 | 1010.6 |
| 20260506061005 | 48 | 40 | 1.0 | 5.0 | 0.00 | 0.03 | 0.00 | 47 | 1010.6 |
| 20260506060505 | 48 | 34 | 1.0 | 5.0 | 0.00 | 0.03 | 0.00 | 47 | 1010.6 |
| 20260506050514 | 50 | 37 | 0.0 | 2.0 | 0.00 | 0.03 | 0.00 | 46 | 1010.2 |
| 20260506045007 | 50 | 38 | 1.0 | 4.0 | 0.00 | 0.03 | 0.03 | 45 | 1010.1 |
| 20260506044506 | 50 | 51 | 1.0 | 4.0 | 0.00 | 0.03 | 0.03 | 43 | 1010.1 |
| 20260506044006 | 51 | 326 | 0.0 | 3.0 | 0.00 | 0.03 | 0.03 | 45 | 1010.0 |
| 20260506043505 | 51 | 312 | 0.0 | 4.0 | 0.00 | 0.03 | 0.03 | 44 | 1010.1 |
| 20260506043007 | 51 | 22 | 0.0 | 4.0 | 0.00 | 0.03 | 0.03 | 44 | 1010.3 |
| 20260506042005 | 51 | 55 | 1.0 | 4.0 | 0.00 | 0.03 | 0.03 | 43 | 1010.4 |
| 20260506041006 | 51 | 290 | 1.0 | 4.0 | 0.00 | 0.03 | 0.03 | 45 | 1010.5 |
| 20260506040006 | 51 | 40 | 1.0 | 4.0 | 0.00 | 0.03 | 0.03 | 44 | 1010.4 |
| 20260506035506 | 51 | 355 | 1.0 | 4.0 | 0.00 | 0.03 | 0.03 | 46 | 1010.3 |
| 20260506035007 | 50 | 265 | 1.0 | 7.0 | 0.00 | 0.03 | 0.03 | 48 | 1010.0 |
| 20260506034505 | 50 | 57 | 0.0 | 7.0 | 0.00 | 0.03 | 0.03 | 50 | 1010.1 |
| 20260506034005 | 49 | 299 | 0.0 | 2.0 | 0.00 | 0.03 | 0.03 | 54 | 1010.2 |
| 20260506033505 | 49 | 273 | 0.0 | 0.0 | 0.00 | 0.03 | 0.03 | 59 | 1010.2 |
| 20260506033008 | 49 | 273 | 0.0 | 0.0 | 0.00 | 0.03 | 0.03 | 57 | 1010.0 |
| 20260506032007 | 49 | 273 | 0.0 | 0.0 | 0.00 | 0.03 | 0.03 | 57 | 1009.5 |
| 20260506031505 | 49 | 273 | 0.0 | 0.0 | 0.00 | 0.03 | 0.03 | 55 | 1009.5 |
| 20260506031005 | 49 | 273 | 0.0 | 0.0 | 0.00 | 0.03 | 0.03 | 54 | 1009.5 |
| 20260506030505 | 49 | 273 | 0.0 | 0.0 | 0.00 | 0.03 | 0.03 | 55 | 1009.4 |
| 20260506025506 | 50 | 273 | 0.0 | 0.0 | 0.00 | 0.05 | 0.03 | 54 | 1009.4 |
| 20260506025006 | 50 | 273 | 0.0 | 0.0 | 0.00 | 0.05 | 0.03 | 56 | 1009.5 |
| 20260506024507 | 50 | 273 | 0.0 | 0.0 | 0.00 | 0.05 | 0.03 | 55 | 1009.6 |
| 20260506023505 | 50 | 273 | 0.0 | 0.0 | 0.00 | 0.05 | 0.03 | 54 | 1009.7 |
| 20260506023006 | 50 | 273 | 0.0 | 0.0 | 0.00 | 0.05 | 0.03 | 54 | 1009.7 |
| 20260506022507 | 50 | 273 | 0.0 | 0.0 | 0.00 | 0.05 | 0.03 | 54 | 1009.6 |
| 20260506022007 | 51 | 273 | 0.0 | 0.0 | 0.00 | 0.05 | 0.03 | 51 | 1009.3 |
| 20260506021506 | 51 | 273 | 0.0 | 0.0 | 0.00 | 0.05 | 0.03 | 52 | 1009.3 |
| 20260506021006 | 51 | 273 | 0.0 | 0.0 | 0.00 | 0.05 | 0.03 | 52 | 1009.3 |
| 20260506020505 | 51 | 273 | 0.0 | 0.0 | 0.00 | 0.05 | 0.03 | 51 | 1009.3 |
| 20260506020006 | 51 | 273 | 0.0 | 0.0 | 0.00 | 0.10 | 0.03 | 53 | 1009.1 |
| 20260506015505 | 51 | 273 | 0.0 | 0.0 | 0.00 | 0.10 | 0.03 | 48 | 1009.0 |
| 20260506015006 | 52 | 273 | 0.0 | 0.0 | 0.00 | 0.10 | 0.03 | 48 | 1008.8 |
| 20260506014006 | 52 | 273 | 0.0 | 0.0 | 0.00 | 0.10 | 0.03 | 50 | 1008.8 |
| 20260506013507 | 52 | 273 | 0.0 | 0.0 | 0.00 | 0.10 | 0.03 | 45 | 1008.8 |
| 20260506012505 | 52 | 273 | 0.0 | 1.0 | 0.00 | 0.10 | 0.03 | 47 | 1008.4 |
| 20260506011006 | 53 | 273 | 0.0 | 1.0 | 0.00 | 0.10 | 0.03 | 47 | 1008.5 |
| 20260506010505 | 53 | 273 | 0.0 | 1.0 | 0.00 | 0.10 | 0.03 | 46 | 1008.3 |
| 20260506010006 | 53 | 273 | 1.0 | 4.0 | 0.00 | 0.21 | 0.03 | 45 | 1008.3 |
| 20260506005006 | 53 | 275 | 0.0 | 2.0 | 0.00 | 0.21 | 0.03 | 43 | 1008.2 |
| 20260506004505 | 53 | 275 | 0.0 | 2.0 | 0.00 | 0.21 | 0.03 | 45 | 1008.0 |
| 20260506004005 | 53 | 275 | 0.0 | 2.0 | 0.00 | 0.21 | 0.03 | 43 | 1008.1 |
| 20260506003506 | 53 | 275 | 1.0 | 3.0 | 0.00 | 0.21 | 0.03 | 44 | 1008.0 |
| 20260506003005 | 53 | 275 | 1.0 | 3.0 | 0.00 | 0.21 | 0.03 | 42 | 1007.9 |
| 20260506002505 | 54 | 306 | 1.0 | 3.0 | 0.00 | 0.21 | 0.03 | 41 | 1008.0 |
| 20260506002005 | 54 | 308 | 1.0 | 3.0 | 0.00 | 0.21 | 0.03 | 40 | 1007.9 |
| 20260506001006 | 54 | 288 | 1.0 | 4.0 | 0.00 | 0.21 | 0.03 | 41 | 1008.1 |
| 20260506000009 | 54 | 302 | 2.0 | 5.0 | 0.00 | 0.21 | 0.03 | 42 | 1008.1 |
| 20260505235507 | 54 | 315 | 2.0 | 5.0 | 0.00 | 0.34 | 0.03 | 41 | 1007.9 |
| 20260505235032 | 54 | 274 | 1.0 | 4.0 | 0.00 | 0.34 | 0.03 | 42 | 1008.0 |
| 20260505233505 | 54 | 235 | 2.0 | 8.0 | 0.00 | 0.34 | 0.03 | 41 | 1008.1 |
| 20260505233006 | 54 | 270 | 1.0 | 8.0 | 0.00 | 0.34 | 0.03 | 40 | 1008.0 |
| 20260505232505 | 54 | 276 | 1.0 | 4.0 | 0.00 | 0.34 | 0.03 | 41 | 1008.1 |
| 20260505232005 | 54 | 263 | 1.0 | 4.0 | 0.00 | 0.34 | 0.03 | 39 | 1008.2 |
| 20260505231007 | 55 | 277 | 2.0 | 6.0 | 0.00 | 0.34 | 0.03 | 39 | 1008.1 |
| 20260505230006 | 55 | 278 | 2.0 | 8.0 | 0.00 | 0.34 | 0.03 | 39 | 1008.1 |
| 20260505225007 | 55 | 273 | 2.0 | 9.0 | 0.00 | 0.34 | 0.03 | 40 | 1008.2 |
| 20260505224505 | 55 | 182 | 2.0 | 9.0 | 0.00 | 0.34 | 0.03 | 39 | 1008.3 |
| 20260505224005 | 55 | 51 | 1.0 | 7.0 | 0.00 | 0.34 | 0.03 | 40 | 1008.4 |
| 20260505223506 | 55 | 290 | 1.0 | 8.0 | 0.00 | 0.34 | 0.03 | 40 | 1008.3 |
| 20260505223006 | 55 | 279 | 2.0 | 8.0 | 0.00 | 0.34 | 0.03 | 41 | 1008.3 |
| 20260505222505 | 55 | 282 | 1.0 | 5.0 | 0.00 | 0.34 | 0.03 | 41 | 1008.3 |
| 20260505222005 | 55 | 275 | 2.0 | 7.0 | 0.00 | 0.34 | 0.03 | 41 | 1008.2 |
| 20260505221505 | 55 | 313 | 2.0 | 7.0 | 0.00 | 0.34 | 0.03 | 40 | 1008.2 |
| 20260505220505 | 55 | 271 | 2.0 | 7.0 | 0.00 | 0.34 | 0.03 | 38 | 1008.3 |
| 20260505215506 | 55 | 275 | 1.0 | 5.0 | 0.00 | 0.34 | 0.03 | 39 | 1008.4 |
| 20260505215007 | 55 | 275 | 1.0 | 5.0 | 0.00 | 0.34 | 0.03 | 41 | 1008.6 |
| 20260505213507 | 55 | 280 | 2.0 | 6.0 | 0.00 | 0.34 | 0.03 | 38 | 1008.5 |
| 20260505213007 | 55 | 283 | 3.0 | 10.0 | 0.00 | 0.34 | 0.03 | 38 | 1008.5 |
| 20260505212506 | 55 | 267 | 3.0 | 10.0 | 0.00 | 0.34 | 0.03 | 38 | 1008.5 |
| 20260505212006 | 55 | 284 | 2.0 | 8.0 | 0.00 | 0.34 | 0.03 | 36 | 1008.5 |
| 20260505211006 | 55 | 273 | 2.0 | 8.0 | 0.00 | 0.34 | 0.03 | 35 | 1008.5 |
| 20260505210506 | 55 | 291 | 2.0 | 6.0 | 0.00 | 0.34 | 0.03 | 39 | 1008.5 |
| 20260505210007 | 55 | 270 | 2.0 | 7.0 | 0.00 | 0.34 | 0.03 | 37 | 1008.5 |
| 20260505205505 | 55 | 271 | 2.0 | 8.0 | 0.00 | 0.34 | 0.03 | 39 | 1008.5 |
| 20260505204505 | 55 | 271 | 2.0 | 8.0 | 0.00 | 0.34 | 0.03 | 38 | 1008.5 |
| 20260505204006 | 55 | 243 | 2.0 | 6.0 | 0.00 | 0.34 | 0.03 | 38 | 1008.6 |
| 20260505203506 | 55 | 272 | 2.0 | 9.0 | 0.00 | 0.34 | 0.03 | 35 | 1008.6 |
| 20260505203008 | 55 | 275 | 2.0 | 9.0 | 0.00 | 0.34 | 0.03 | 38 | 1008.6 |
| 20260505202006 | 55 | 276 | 2.0 | 9.0 | 0.00 | 0.34 | 0.03 | 38 | 1008.8 |
| 20260505201006 | 55 | 279 | 2.0 | 8.0 | 0.00 | 0.34 | 0.03 | 41 | 1008.7 |
| 20260505200006 | 55 | 231 | 2.0 | 5.0 | 0.00 | 0.34 | 0.03 | 35 | 1008.7 |
| 20260505195506 | 55 | 284 | 2.0 | 5.0 | 0.00 | 0.34 | 0.03 | 39 | 1008.8 |
| 20260505195013 | 55 | 273 | 1.0 | 5.0 | 0.00 | 0.34 | 0.03 | 34 | 1008.6 |
| 20260505194506 | 55 | 242 | 1.0 | 5.0 | 0.00 | 0.34 | 0.03 | 36 | 1008.7 |
| 20260505194006 | 55 | 247 | 2.0 | 5.0 | 0.00 | 0.34 | 0.03 | 38 | 1008.6 |
| 20260505193508 | 55 | 275 | 2.0 | 6.0 | 0.00 | 0.34 | 0.03 | 41 | 1008.7 |
| 20260505193006 | 55 | 271 | 2.0 | 7.0 | 0.00 | 0.34 | 0.03 | 39 | 1008.8 |
| 20260505192505 | 55 | 292 | 3.0 | 8.0 | 0.00 | 0.34 | 0.03 | 38 | 1008.9 |
| 20260505192006 | 55 | 274 | 2.0 | 7.0 | 0.00 | 0.34 | 0.03 | 36 | 1008.9 |
| 20260505191506 | 55 | 201 | 2.0 | 7.0 | 0.00 | 0.34 | 0.03 | 41 | 1009.1 |
| 20260505191006 | 55 | 287 | 2.0 | 7.0 | 0.00 | 0.34 | 0.03 | 39 | 1009.1 |
| 20260505190505 | 55 | 294 | 2.0 | 6.0 | 0.00 | 0.34 | 0.03 | 41 | 1009.0 |
| 20260505190006 | 55 | 200 | 2.0 | 7.0 | 0.00 | 0.34 | 0.03 | 41 | 1009.1 |
| 20260505185505 | 55 | 275 | 2.0 | 9.0 | 0.01 | 0.34 | 0.03 | 39 | 1009.0 |
| 20260505185006 | 55 | 202 | 3.0 | 9.0 | 0.01 | 0.34 | 0.03 | 39 | 1009.0 |
| 20260505184506 | 55 | 279 | 2.0 | 8.0 | 0.01 | 0.34 | 0.03 | 40 | 1009.0 |
| 20260505184006 | 55 | 219 | 2.0 | 7.0 | 0.01 | 0.34 | 0.03 | 40 | 1008.9 |
| 20260505183505 | 56 | 279 | 2.0 | 8.0 | 0.01 | 0.34 | 0.03 | 44 | 1009.0 |
| 20260505183006 | 56 | 322 | 2.0 | 8.0 | 0.01 | 0.34 | 0.03 | 39 | 1009.0 |
| 20260505182506 | 56 | 279 | 2.0 | 5.0 | 0.01 | 0.34 | 0.03 | 44 | 1009.0 |
| 20260505182005 | 56 | 263 | 2.0 | 8.0 | 0.01 | 0.34 | 0.03 | 39 | 1008.9 |
| 20260505181506 | 56 | 294 | 3.0 | 9.0 | 0.01 | 0.34 | 0.03 | 40 | 1008.9 |
| 20260505181005 | 56 | 288 | 3.0 | 9.0 | 0.01 | 0.34 | 0.03 | 42 | 1008.9 |
| 20260505180505 | 56 | 162 | 2.0 | 9.0 | 0.01 | 0.34 | 0.03 | 41 | 1008.8 |
| 20260505180007 | 56 | 296 | 2.0 | 9.0 | 0.01 | 0.34 | 0.03 | 43 | 1008.9 |
| 20260505175506 | 56 | 314 | 1.0 | 9.0 | 0.00 | 0.33 | 0.02 | 39 | 1008.9 |
| 20260505175005 | 56 | 286 | 1.0 | 9.0 | 0.00 | 0.33 | 0.02 | 42 | 1008.9 |
| 20260505174505 | 55 | 316 | 1.0 | 9.0 | 0.00 | 0.33 | 0.02 | 40 | 1008.6 |
| 20260505174006 | 56 | 290 | 1.0 | 5.0 | 0.00 | 0.33 | 0.02 | 41 | 1008.6 |
| 20260505173506 | 56 | 288 | 2.0 | 5.0 | 0.00 | 0.33 | 0.02 | 42 | 1008.6 |
| 20260505173006 | 56 | 248 | 2.0 | 11.0 | 0.00 | 0.33 | 0.02 | 38 | 1008.9 |
| 20260505172505 | 55 | 269 | 2.0 | 11.0 | 0.00 | 0.33 | 0.02 | 41 | 1008.7 |
| 20260505172005 | 55 | 301 | 1.0 | 5.0 | 0.00 | 0.33 | 0.02 | 40 | 1008.8 |
| 20260505171506 | 56 | 95 | 3.0 | 10.0 | 0.00 | 0.33 | 0.02 | 38 | 1008.8 |
| 20260505171006 | 56 | 298 | 3.0 | 10.0 | 0.00 | 0.33 | 0.02 | 41 | 1008.6 |
| 20260505170505 | 56 | 306 | 3.0 | 8.0 | 0.00 | 0.33 | 0.02 | 39 | 1008.6 |
| 20260505170007 | 56 | 283 | 3.0 | 8.0 | 0.00 | 0.33 | 0.02 | 43 | 1008.6 |
| 20260505165507 | 56 | 279 | 3.0 | 11.0 | 0.00 | 0.33 | 0.02 | 40 | 1008.5 |
| 20260505165005 | 55 | 266 | 3.0 | 11.0 | 0.00 | 0.33 | 0.02 | 44 | 1008.4 |
| 20260505164505 | 55 | 300 | 2.0 | 7.0 | 0.00 | 0.33 | 0.02 | 43 | 1008.4 |
| 20260505163009 | 55 | 277 | 1.0 | 7.0 | 0.00 | 0.33 | 0.02 | 47 | 1008.9 |
| 20260505162505 | 54 | 281 | 2.0 | 10.0 | 0.00 | 0.33 | 0.02 | 49 | 1008.7 |
| 20260505162006 | 54 | 279 | 3.0 | 10.0 | 0.00 | 0.33 | 0.02 | 50 | 1008.6 |
| 20260505161505 | 54 | 258 | 2.0 | 7.0 | 0.00 | 0.33 | 0.02 | 49 | 1008.6 |
| 20260505161005 | 54 | 279 | 1.0 | 7.0 | 0.00 | 0.33 | 0.02 | 52 | 1008.5 |
| 20260505160504 | 54 | 263 | 2.0 | 10.0 | 0.00 | 0.33 | 0.02 | 47 | 1008.5 |
| 20260505153007 | 52 | 288 | 2.0 | 8.0 | 0.00 | 0.33 | 0.02 | 53 | 1008.3 |
| 20260505152505 | 52 | 282 | 1.0 | 5.0 | 0.00 | 0.33 | 0.02 | 52 | 1008.2 |
| 20260505151506 | 51 | 302 | 1.0 | 7.0 | 0.00 | 0.33 | 0.02 | 57 | 1008.3 |
| 20260505151006 | 51 | 287 | 1.0 | 7.0 | 0.01 | 0.33 | 0.02 | 58 | 1008.3 |
| 20260505150506 | 51 | 295 | 1.0 | 3.0 | 0.01 | 0.33 | 0.02 | 62 | 1008.4 |
| 20260505140504 | 47 | 249 | 0.0 | 2.0 | 0.00 | 0.32 | 0.01 | 79 | 1008.9 |
| 20260505125006 | 44 | 279 | 0.0 | 0.0 | 0.01 | 0.32 | 0.01 | 86 | 1008.7 |
| 20260505124507 | 44 | 279 | 0.0 | 0.0 | 0.01 | 0.32 | 0.01 | 85 | 1008.4 |
| 20260505124005 | 45 | 279 | 0.0 | 1.0 | 0.01 | 0.32 | 0.01 | 84 | 1008.7 |
| 20260505123505 | 45 | 279 | 0.0 | 1.0 | 0.01 | 0.32 | 0.01 | 84 | 1008.8 |
| 20260505123006 | 45 | 279 | 0.0 | 0.0 | 0.01 | 0.32 | 0.01 | 83 | 1008.2 |
| 20260505122506 | 45 | 279 | 0.0 | 0.0 | 0.00 | 0.31 | 0.00 | 82 | 1008.5 |
| 20260505122005 | 45 | 279 | 0.0 | 1.0 | 0.00 | 0.31 | 0.00 | 80 | 1008.5 |
| 20260505121504 | 45 | 279 | 0.0 | 1.0 | 0.00 | 0.31 | 0.00 | 78 | 1008.5 |
| 20260505121005 | 45 | 279 | 0.0 | 1.0 | 0.00 | 0.31 | 0.00 | 76 | 1008.5 |
| 20260505120010 | 46 | 279 | 0.0 | 1.0 | 0.00 | 0.31 | 0.00 | 73 | 1008.9 |
| 20260505115506 | 47 | 279 | 1.0 | 4.0 | 0.00 | 0.31 | 0.00 | 72 | 1008.5 |
| 20260505115006 | 47 | 279 | 1.0 | 4.0 | 0.00 | 0.31 | 0.00 | 70 | 1008.2 |
| 20260505114506 | 48 | 275 | 1.0 | 6.0 | 0.00 | 0.31 | 0.00 | 66 | 1007.8 |
| 20260505114006 | 48 | 275 | 1.0 | 6.0 | 0.00 | 0.31 | 0.00 | 63 | 1007.7 |
| 20260505113505 | 49 | 278 | 2.0 | 9.0 | 0.00 | 0.31 | 0.00 | 60 | 1007.3 |
| 20260505113006 | 49 | 309 | 2.0 | 9.0 | 0.00 | 0.31 | 0.00 | 57 | 1007.6 |
| 20260505112009 | 50 | 280 | 1.0 | 7.0 | 0.00 | 0.31 | 0.00 | 54 | 1006.9 |
| 20260505111506 | 50 | 307 | 1.0 | 5.0 | 0.00 | 0.31 | 0.00 | 52 | 1006.7 |
| 20260505111006 | 50 | 283 | 1.0 | 6.0 | 0.00 | 0.31 | 0.00 | 54 | 1006.4 |
| 20260505102007 | 51 | 36 | 1.0 | 3.0 | 0.00 | 0.31 | 0.00 | 55 | 1005.5 |
| 20260505101008 | 51 | 312 | 0.0 | 2.0 | 0.00 | 0.31 | 0.00 | 60 | 1005.9 |
| 20260505100507 | 51 | 30 | 1.0 | 5.0 | 0.00 | 0.31 | 0.00 | 56 | 1005.6 |
| 20260505100008 | 51 | 34 | 1.0 | 5.0 | 0.00 | 0.31 | 0.00 | 55 | 1005.7 |
| 20260505095506 | 51 | 333 | 1.0 | 4.0 | 0.00 | 0.31 | 0.00 | 59 | 1005.7 |
| 20260505095005 | 52 | 51 | 1.0 | 4.0 | 0.00 | 0.31 | 0.00 | 54 | 1005.8 |
| 20260505094507 | 52 | 63 | 1.0 | 8.0 | 0.00 | 0.31 | 0.00 | 55 | 1006.0 |
| 20260505094007 | 52 | 302 | 2.0 | 8.0 | 0.00 | 0.31 | 0.00 | 53 | 1005.9 |
| 20260505093506 | 52 | 311 | 1.0 | 5.0 | 0.00 | 0.31 | 0.00 | 50 | 1005.8 |
| 20260505093005 | 52 | 281 | 1.0 | 5.0 | 0.00 | 0.31 | 0.00 | 52 | 1005.6 |
| 20260505092506 | 53 | 277 | 1.0 | 5.0 | 0.00 | 0.31 | 0.00 | 50 | 1005.8 |
| 20260505090007 | 54 | 330 | 1.0 | 4.0 | 0.00 | 0.31 | 0.00 | 51 | 1005.5 |
| 20260505085506 | 54 | 311 | 2.0 | 8.0 | 0.00 | 0.31 | 0.00 | 48 | 1005.3 |
| 20260505085006 | 54 | 9 | 2.0 | 11.0 | 0.00 | 0.31 | 0.00 | 48 | 1005.1 |
| 20260505084507 | 55 | 335 | 1.0 | 11.0 | 0.00 | 0.31 | 0.00 | 52 | 1004.8 |
| 20260505084008 | 55 | 285 | 1.0 | 4.0 | 0.00 | 0.31 | 0.00 | 53 | 1004.7 |
| 20260505083504 | 55 | 284 | 1.0 | 7.0 | 0.00 | 0.31 | 0.00 | 53 | 1004.6 |
| 20260505083007 | 55 | 286 | 2.0 | 7.0 | 0.00 | 0.31 | 0.00 | 52 | 1004.5 |
| 20260505082505 | 55 | 280 | 1.0 | 7.0 | 0.00 | 0.31 | 0.00 | 52 | 1004.3 |
| 20260505082007 | 55 | 286 | 0.0 | 3.0 | 0.00 | 0.31 | 0.00 | 53 | 1003.9 |
| 20260505081505 | 55 | 283 | 1.0 | 2.0 | 0.00 | 0.31 | 0.00 | 53 | 1003.7 |
| 20260505081006 | 55 | 283 | 1.0 | 4.0 | 0.00 | 0.31 | 0.00 | 53 | 1003.8 |
| 20260505080507 | 55 | 283 | 1.0 | 4.0 | 0.00 | 0.31 | 0.00 | 53 | 1003.6 |
| 20260505080012 | 55 | 285 | 1.0 | 4.0 | 0.00 | 0.31 | 0.00 | 53 | 1003.4 |
| 20260505075504 | 55 | 285 | 1.0 | 4.0 | 0.00 | 0.31 | 0.00 | 53 | 1003.3 |
| 20260505075005 | 55 | 275 | 1.0 | 4.0 | 0.00 | 0.31 | 0.00 | 53 | 1003.3 |
| 20260505074505 | 55 | 276 | 1.0 | 3.0 | 0.00 | 0.31 | 0.00 | 54 | 1003.1 |
| 20260505074009 | 55 | 275 | 0.0 | 3.0 | 0.00 | 0.31 | 0.00 | 53 | 1003.2 |
| 20260505073504 | 55 | 275 | 1.0 | 3.0 | 0.00 | 0.31 | 0.00 | 53 | 1003.2 |
| 20260505072005 | 56 | 275 | 1.0 | 6.0 | 0.00 | 0.31 | 0.00 | 52 | 1003.1 |
| 20260505071006 | 56 | 278 | 1.0 | 4.0 | 0.00 | 0.31 | 0.00 | 53 | 1002.7 |
| 20260505070005 | 56 | 277 | 0.0 | 3.0 | 0.00 | 0.31 | 0.00 | 52 | 1002.8 |
| 20260505065505 | 56 | 277 | 1.0 | 4.0 | 0.00 | 0.31 | 0.00 | 52 | 1002.7 |
| 20260505065006 | 56 | 277 | 1.0 | 4.0 | 0.00 | 0.31 | 0.00 | 51 | 1002.7 |
| 20260505064507 | 57 | 282 | 1.0 | 4.0 | 0.00 | 0.31 | 0.00 | 52 | 1002.6 |
| 20260505064006 | 57 | 285 | 1.0 | 5.0 | 0.00 | 0.31 | 0.00 | 52 | 1002.6 |
| 20260505063505 | 57 | 285 | 1.0 | 5.0 | 0.00 | 0.31 | 0.00 | 53 | 1002.6 |